TimeCDT,TemperatureF,Dew PointF,Humidity,Sea Level PressureIn,VisibilityMPH,Wind Direction,Wind SpeedMPH,Gust SpeedMPH,PrecipitationIn,Events,Conditions,WindDirDegrees,DateUTC
12:52 AM,66.0,64.9,96,30.24,10.0,SSE,9.2,-,N/A,,Clear,150,2013-05-14 05:52:00
1:52 AM,66.0,64.9,96,30.22,10.0,SSE,10.4,-,N/A,,Clear,160,2013-05-14 06:52:00
2:52 AM,66.0,66.0,100,30.21,10.0,South,12.7,-,N/A,,Partly Cloudy,170,2013-05-14 07:52:00
3:52 AM,66.9,66.0,97,30.21,10.0,South,11.5,-,N/A,,Scattered Clouds,180,2013-05-14 08:52:00
4:52 AM,66.0,66.0,100,30.20,10.0,South,9.2,-,N/A,,Partly Cloudy,190,2013-05-14 09:52:00
5:52 AM,66.9,66.0,97,30.20,10.0,South,9.2,-,N/A,,Unknown,190,2013-05-14 10:52:00
6:52 AM,66.9,64.9,93,30.20,10.0,South,8.1,-,N/A,,Partly Cloudy,190,2013-05-14 11:52:00
7:52 AM,68.0,66.9,96,30.21,10.0,South,9.2,-,N/A,,Clear,170,2013-05-14 12:52:00
8:52 AM,70.0,66.9,90,30.22,10.0,SSE,10.4,-,N/A,,Clear,150,2013-05-14 13:52:00
9:52 AM,71.1,68.0,90,30.23,10.0,ESE,10.4,-,N/A,,Clear,120,2013-05-14 14:52:00
10:52 AM,73.0,66.9,81,30.25,10.0,ESE,10.4,-,N/A,,Scattered Clouds,110,2013-05-14 15:52:00
11:52 AM,73.9,68.0,82,30.25,10.0,ESE,10.4,-,N/A,,Scattered Clouds,120,2013-05-14 16:52:00
12:52 PM,75.0,66.9,76,30.23,10.0,SE,12.7,-,N/A,,Partly Cloudy,140,2013-05-14 17:52:00
1:52 PM,75.0,68.0,79,30.22,10.0,SE,11.5,-,N/A,,Scattered Clouds,130,2013-05-14 18:52:00
2:52 PM,75.9,66.9,74,30.20,10.0,SE,10.4,-,N/A,,Partly Cloudy,140,2013-05-14 19:52:00
3:52 PM,75.0,66.9,76,30.19,10.0,SE,13.8,-,N/A,,Clear,140,2013-05-14 20:52:00
4:52 PM,73.9,66.0,76,30.17,10.0,SSE,13.8,-,N/A,,Clear,150,2013-05-14 21:52:00
5:52 PM,73.9,66.0,76,30.16,10.0,SSE,15.0,-,N/A,,Scattered Clouds,150,2013-05-14 22:52:00
6:52 PM,72.0,66.0,81,30.14,10.0,SSE,13.8,-,N/A,,Clear,150,2013-05-14 23:52:00
7:52 PM,71.1,66.9,87,30.14,10.0,SSE,12.7,-,N/A,,Clear,150,2013-05-15 00:52:00
8:52 PM,70.0,66.0,87,30.14,10.0,SSE,16.1,-,N/A,,Partly Cloudy,150,2013-05-15 01:52:00
9:52 PM,71.1,66.9,87,30.15,10.0,SSE,13.8,-,N/A,,Partly Cloudy,150,2013-05-15 02:52:00
10:52 PM,71.1,66.9,87,30.15,10.0,SSE,18.4,-,N/A,,Clear,160,2013-05-15 03:52:00
11:52 PM,71.1,66.9,87,30.15,10.0,SSE,13.8,-,N/A,,Clear,160,2013-05-15 04:52:00